Weather History for Avalon, CA

Change the Weather History Date:

Thursday, November 28, 2013

  Actual Average Record
Temperature  
Mean Temperature 57 °F -  
Max Temperature 62 °F 58 °F 77 °F (2011)
Min Temperature 52 °F 49 °F 44 °F (2010)
Degree Days  
Heating Degree Days 8    
Growing Degree Days 7 (Base 50)    
Moisture  
Dew Point 45 °F    
Average Humidity 71    
Maximum Humidity 94    
Minimum Humidity 33    
Precipitation  
Precipitation 0.00 in - - ()
Sea Level Pressure  
Sea Level Pressure 29.97 in    
Wind  
Wind Speed 7 mph (SE)    
Max Wind Speed 17 mph    
Max Gust Speed 18 mph    
Visibility 10 miles    
Events Rain    
Averages and records for this station are not official NWS values.
T = Trace of Precipitation, MM = Missing Value Source: NWS Daily Summary

Daily Weather History Graph

Daily Weather History Graph

Search for Another Location

Airport:

Trip Planner

Search our weather history database for the weather conditions in past years. The results will help you decide how hot, cold, wet, or windy it might be!

Date:

Astronomy

Nov. 28, 2013 Rise Set
Actual Time 6:37 AM PST 4:46 PM PST
Civil Twilight 6:10 AM PST 5:13 PM PST
Nautical Twilight 5:39 AM PST 5:43 PM PST
Astronomical Twilight 5:09 AM PST 6:13 PM PST
Moon 1:57 AM PST (11/28) 1:47 PM PST (11/28)
Length of Visible Light 11h 03m
Length of Day
10h 08m
Waning Crescent, 21% of the Moon is Illuminated
Nov 28
Waning Crescent
Dec 2
New
Dec 9
First Quarter
Dec 17
Full
Dec 25
Last Quarter

Hourly Weather History & Observations

Time (PST) Temp. Dew Point Humidity Pressure Visibility Wind Dir Wind Speed Gust Speed Precip Events Conditions
12:51 AM 55.9 °F 27.0 °F 33% 29.88 in 10.0 mi SSE 6.9 mph - N/A   Clear
1:51 AM 55.0 °F 28.0 °F 35% 29.88 in 10.0 mi SSE 5.8 mph - N/A   Clear
2:51 AM 55.9 °F 28.9 °F 36% 29.88 in 10.0 mi SE 4.6 mph - N/A   Clear
3:51 AM 54.0 °F 32.0 °F 43% 29.88 in 10.0 mi SSE 4.6 mph - N/A   Clear
4:51 AM 52.0 °F 46.0 °F 80% 29.88 in 10.0 mi Variable 3.5 mph - N/A   Clear
5:51 AM 52.0 °F 46.9 °F 83% 29.89 in 10.0 mi SSE 5.8 mph - N/A   Clear
6:51 AM 53.1 °F 46.0 °F 77% 29.92 in 10.0 mi SE 6.9 mph - N/A   Clear
7:51 AM 57.0 °F 46.0 °F 67% 29.91 in 10.0 mi ESE 6.9 mph - N/A   Partly Cloudy
8:51 AM 60.1 °F 45.0 °F 57% 29.94 in 10.0 mi SE 6.9 mph - N/A   Partly Cloudy
9:51 AM 60.1 °F 43.0 °F 53% 29.96 in 10.0 mi SE 5.8 mph - N/A   Partly Cloudy
10:51 AM 61.0 °F 46.9 °F 60% 29.96 in 10.0 mi SSE 9.2 mph - N/A   Clear
11:51 AM 62.1 °F 43.0 °F 50% 29.95 in 10.0 mi South 6.9 mph 18.4 mph N/A   Clear
12:51 PM 60.1 °F 43.0 °F 53% 29.94 in 10.0 mi SSE 8.1 mph - N/A   Clear
1:51 PM 59.0 °F 43.0 °F 55% 29.94 in 10.0 mi SSE 9.2 mph - N/A   Clear
2:51 PM 59.0 °F 44.1 °F 58% 29.94 in 10.0 mi South 8.1 mph - N/A   Clear
3:51 PM 55.0 °F 48.0 °F 77% 29.96 in 10.0 mi ESE 8.1 mph - N/A   Clear
4:51 PM 55.0 °F 48.9 °F 80% 29.98 in 10.0 mi SSE 4.6 mph - N/A   Partly Cloudy
5:51 PM 54.0 °F 50.0 °F 86% 30.00 in 10.0 mi SE 5.8 mph - N/A   Mostly Cloudy
6:23 PM 53.6 °F 51.8 °F 94% 30.01 in 10.0 mi SE 10.4 mph - N/A   Mostly Cloudy
6:42 PM 53.6 °F 51.8 °F 94% 30.02 in 10.0 mi SE 8.1 mph - N/A   Overcast
6:51 PM 54.0 °F 51.1 °F 90% 30.01 in 10.0 mi ESE 9.2 mph - 0.00 in Rain Light Rain
7:16 PM 53.6 °F 51.8 °F 94% 30.03 in 10.0 mi SE 9.2 mph - 0.00 in   Overcast
7:38 PM 53.6 °F 51.8 °F 94% 30.03 in 10.0 mi SE 9.2 mph 16.1 mph 0.00 in   Overcast
7:43 PM 53.6 °F 51.8 °F 94% 30.03 in 10.0 mi SE 11.5 mph - 0.00 in   Overcast
7:51 PM 54.0 °F 51.1 °F 90% 30.02 in 10.0 mi SE 9.2 mph - 0.00 in   Overcast
8:51 PM 54.0 °F 48.9 °F 83% 30.02 in 10.0 mi SE 11.5 mph - N/A   Mostly Cloudy
9:51 PM 55.0 °F 46.9 °F 74% 30.02 in 10.0 mi SE 17.3 mph - N/A   Overcast
10:51 PM 55.0 °F 48.9 °F 80% 30.03 in 10.0 mi SE 13.8 mph - N/A   Mostly Cloudy
11:32 PM 55.4 °F 51.8 °F 88% 30.06 in 10.0 mi SE 12.7 mph - N/A   Overcast
11:51 PM 55.0 °F 51.1 °F 86% 30.03 in 10.0 mi SE 13.8 mph - N/A   Overcast